星链-30058 (STARLINK-30058 )

导读

STARLINK-30058是由美国发射的星链卫星,于北京时间2023年2月27日8时成功入轨,隶属于SpaceX公司的星链星座项目。星链计划旨在构建全球卫星互联网星座,该卫星承担着为全球多地提供宽带互联网接入服务的任务,进一步扩充了星链星座的规模,推动了全球卫星互联网络的部署进程。

基本信息
目录编号:
55708
目录名称:
STARLINK-30058
国际标识:
2023-026P
轨道中心:
EARTH
卫星名称:
星链-30058
卫星全名:
星链-30058 (STARLINK-30058 )
卫星状态:
已陨落 最后检测时间 2023-08-07
发射日期:
2023-02-27 UTC
国别 :
美国 (US)
星等 :
--
轨道信息
数据来源 国际轨道数据
星历时间: 2023-08-07T15:36:58+0800
轨道信息已过期1042天
半长轴: 6525.684km
偏心率: 0.0008312
轨道倾角: 42.985°
近地点辐角 275.021°
升交点赤经 71.206°
平近点角 86.481°
近地点: 142.124km
远地点: 152.974km
周期: 87.438分钟
每日圈数: 16.468867
详细信息
固有亮度:
5
最大亮度:
0.4
卫星平台:
Starlink v2.0 mini
覆盖范围:
全球
运营商:
太空探索技术公司
运营商所在国:
美国
制造商(研发单位):
太空探索技术公司
制造商所在国:
美国
使用方式:
暂无
卫星简介
星链(Starlink)计划是由太空探索技术公司(SpaceX)提出的一个巨型低轨卫星互联网星座项目,计划在2019年至2024年间在太空搭建由约1.2万颗卫星组成的“星链”网络,其中1584颗将部署在地球上空550千米处的近地轨道,并从2020年开始工作。该卫星已陨落。